STARLINK-37922

Last updated on Sun Aug 09 2026 00:02:04 GMT+0000 (Coordinated Universal Time)

1 69971U 26157AE 26220.16084466 .00033861 00000+0 61386-3 0 9997 2 69971 53.1597 176.7071 0001636 86.8015 273.3182 15.49325781 4710
UTC large
Height (km)
Speed (km/s)
/
Latitude / Longitude
Inclination (degrees)
Orbital Period (minutes)
Azimuth
Elevation
Range (km)
Doppler Factor

Next 0 passes for location: London (51.5072 / 0.1276)

No passes found over London.
STARLINK-37922